2023/09/18 00:00:00,11.7,21.9
2023/09/18 00:10:00,11.4,22.1
2023/09/18 00:20:00,11.4,22.2
2023/09/18 00:30:00,11.4,22.3
2023/09/18 00:40:00,11.4,22.3
2023/09/18 00:50:00,11.8,22.3
2023/09/18 01:00:00,12.0,22.2
2023/09/18 01:10:00, 4.3,22.4
2023/09/18 01:20:00, 2.2,22.5
2023/09/18 01:30:00, 2.1,22.4
2023/09/18 01:40:00, 2.0,22.2
2023/09/18 01:50:00, 2.0,22.1
2023/09/18 02:00:00, 2.0,22.2
2023/09/18 02:10:00, 2.1,22.3
2023/09/18 02:20:00,11.5,22.5
2023/09/18 02:30:00,11.8,22.3
2023/09/18 02:40:00,11.2,22.3
2023/09/18 02:50:00,10.9,22.0
2023/09/18 03:00:00,10.8,22.1
2023/09/18 03:10:00,10.9,22.0
2023/09/18 03:20:00,11.3,21.6
2023/09/18 03:30:00,12.1,21.6
2023/09/18 03:40:00, 9.0,21.5
2023/09/18 03:50:00, 2.2,21.3
2023/09/18 04:00:00, 2.2,21.4
2023/09/18 04:10:00, 2.2,21.4
2023/09/18 04:20:00, 2.3,21.6
2023/09/18 04:30:00, 2.3,21.5
2023/09/18 04:40:00, 6.3,21.5
2023/09/18 04:50:00,12.2,21.5
2023/09/18 05:00:00,11.2,21.4
2023/09/18 05:10:00,10.4,21.4
2023/09/18 05:20:00,10.1,21.3
2023/09/18 05:30:00, 9.9,21.0
2023/09/18 05:40:00, 9.9,20.9
2023/09/18 05:50:00, 9.9,20.9
2023/09/18 06:00:00,11.7,20.9
2023/09/18 06:10:00,11.0,21.2
2023/09/18 06:20:00,11.5,20.8
2023/09/18 06:30:00,11.9,20.9
2023/09/18 06:40:00,11.5,21.1
2023/09/18 06:50:00,11.8,21.1
2023/09/18 07:00:00,11.7,21.1
2023/09/18 07:10:00,11.3,21.2
2023/09/18 07:20:00,11.0,21.4
2023/09/18 07:30:00,10.5,21.8
2023/09/18 07:40:00,---,22.6
2023/09/18 07:50:00, 5.0,22.8
2023/09/18 08:00:00, 6.6,23.5
2023/09/18 08:10:00, 2.1,23.7
2023/09/18 08:20:00, 1.8,24.1
2023/09/18 08:30:00, 1.6,24.7
2023/09/18 08:40:00, 1.5,25.0
2023/09/18 08:50:00, 1.6,25.5
2023/09/18 09:00:00, 1.5,26.1
2023/09/18 09:10:00, 1.6,26.1
2023/09/18 09:20:00, 1.8,25.4
2023/09/18 09:30:00, 1.6,27.6
2023/09/18 09:40:00,---,28.6
2023/09/18 09:50:00, 0.0,29.6
2023/09/18 10:00:00, 1.6,29.5
2023/09/18 10:10:00, 1.6,30.5
2023/09/18 10:20:00, 1.7,31.1
2023/09/18 10:30:00, 1.7,31.2
2023/09/18 10:40:00, 1.7,32.3
2023/09/18 10:50:00, 1.5,31.9
2023/09/18 11:00:00, 1.6,32.2
2023/09/18 11:10:00, 1.5,31.8
2023/09/18 11:20:00, 1.8,31.6
2023/09/18 11:30:00,---,33.1
2023/09/18 11:40:00, 0.0,33.5
2023/09/18 11:50:00, 0.0,32.3
2023/09/18 12:00:00, 1.7,32.2
2023/09/18 12:10:00, 1.9,31.7
2023/09/18 12:20:00, 2.2,30.4
2023/09/18 12:30:00, 2.3,29.0
2023/09/18 12:40:00, 2.2,26.3
2023/09/18 12:50:00, 2.1,25.6
2023/09/18 13:00:00, 1.9,25.6
2023/09/18 13:10:00, 1.9,27.1
2023/09/18 13:20:00, 2.0,27.1
2023/09/18 13:30:00, 1.8,27.0
2023/09/18 13:40:00, 1.9,26.9
2023/09/18 13:50:00, 1.8,26.9
2023/09/18 14:00:00, 2.1,26.1
2023/09/18 14:10:00, 4.0,25.0
2023/09/18 14:20:00, 7.6,22.9
2023/09/18 14:30:00, 9.4,22.5
2023/09/18 14:40:00,10.5,22.4
2023/09/18 14:50:00, 3.1,21.9
2023/09/18 15:00:00, 2.4,22.2
2023/09/18 15:10:00, 1.2,22.0
2023/09/18 15:20:00, 1.2,21.9
2023/09/18 15:30:00, 1.1,22.2
2023/09/18 15:40:00, 0.8,22.3
2023/09/18 15:50:00, 3.2,22.7
2023/09/18 16:00:00,---,23.1
2023/09/18 16:10:00,12.1,23.5
2023/09/18 16:20:00,12.2,23.4
2023/09/18 16:30:00,12.4,24.4
2023/09/18 16:40:00,12.4,24.7
2023/09/18 16:50:00,12.2,23.8
2023/09/18 17:00:00,11.8,24.0
2023/09/18 17:10:00,12.0,24.0
2023/09/18 17:20:00,12.2,23.7
2023/09/18 17:30:00,11.8,23.2
2023/09/18 17:40:00,11.5,23.0
2023/09/18 17:50:00,11.2,22.5
2023/09/18 18:00:00,11.1,22.6
2023/09/18 18:10:00,11.1,22.4
2023/09/18 18:20:00,11.1,22.3
2023/09/18 18:30:00,11.4,22.1
2023/09/18 18:40:00,11.4,21.9
2023/09/18 18:50:00,11.3,21.8
2023/09/18 19:00:00,11.0,22.0
2023/09/18 19:10:00,10.9,22.0
2023/09/18 19:20:00,10.8,22.2
2023/09/18 19:30:00,10.6,21.9
2023/09/18 19:40:00,10.4,21.9
2023/09/18 19:50:00,10.2,22.2
2023/09/18 20:00:00,10.0,22.0
2023/09/18 20:10:00, 9.8,22.0
2023/09/18 20:20:00, 9.7,21.9
2023/09/18 20:30:00, 9.6,22.1
2023/09/18 20:40:00, 9.6,22.1
2023/09/18 20:50:00, 9.7,22.0
2023/09/18 21:00:00, 9.9,21.9
2023/09/18 21:10:00,10.4,21.6
2023/09/18 21:20:00,10.5,21.5
2023/09/18 21:30:00, 5.7,21.5
2023/09/18 21:40:00, 0.9,21.3
2023/09/18 21:50:00, 0.9,21.2
2023/09/18 22:00:00, 1.0,21.6
2023/09/18 22:10:00, 1.1,21.5
2023/09/18 22:20:00, 1.2,21.5
2023/09/18 22:30:00, 7.8,21.5
2023/09/18 22:40:00,11.5,21.5
2023/09/18 22:50:00,12.6,21.5
2023/09/18 23:00:00, 7.3,21.4
2023/09/18 23:10:00, 0.7,21.3
2023/09/18 23:20:00, 2.2,21.4
2023/09/18 23:30:00, 2.6,21.3
2023/09/18 23:40:00, 2.7,21.2
2023/09/18 23:50:00, 2.6,21.0
